SR9WXG Weather Reports


Display with metric or nautical units.
time (UTC)temp
F
wind
direction
speed
MPH
gust
MPH
rain 1hr
in
rain 24hr
in
rain mn
in
humidity
%
barometer
mb
20260506090113 32 0 8.0 23.0 0.00 0.00 0.00 100 938.5
20260506085713 32 0 9.0 14.0 0.00 0.00 0.00 100 938.5
20260506085313 32 0 9.0 15.0 0.00 0.00 0.00 100 938.5
20260506084913 32 0 8.0 12.0 0.00 0.00 0.00 100 938.5
20260506084513 32 0 7.0 14.0 0.00 0.00 0.00 100 938.5
20260506084111 32 0 6.0 9.0 0.00 0.00 0.00 100 938.5
20260506083711 32 0 5.0 9.0 0.00 0.00 0.00 100 938.5
20260506083311 32 0 7.0 10.0 0.00 0.00 0.00 100 938.4
20260506082910 32 0 6.0 9.0 0.00 0.00 0.00 100 938.5
20260506082510 32 0 8.0 12.0 0.00 0.00 0.00 100 938.4
20260506082108 32 0 5.0 10.0 0.00 0.00 0.00 100 938.3
20260506081708 32 0 7.0 13.0 0.00 0.00 0.00 100 938.3
20260506081308 32 0 9.0 13.0 0.00 0.00 0.00 100 938.2
20260506080908 32 0 9.0 17.0 0.00 0.00 0.00 100 938.1
20260506080508 32 0 8.0 11.0 0.00 0.00 0.00 100 938.0
20260506080106 32 0 9.0 17.0 0.00 0.00 0.00 100 937.8
20260506073252 32 0 7.0 12.0 0.00 0.00 0.00 100 937.8
20260506072852 32 0 9.0 15.0 0.00 0.00 0.00 100 937.9
20260506072452 32 0 7.0 12.0 0.00 0.00 0.00 100 937.9
20260506072050 32 0 8.0 12.0 0.00 0.00 0.00 100 937.9
20260506071650 32 0 8.0 10.0 0.00 0.00 0.00 100 937.8
20260506071249 32 0 8.0 14.0 0.00 0.00 0.00 100 937.9
20260506070849 32 0 9.0 14.0 0.00 0.00 0.00 100 937.8
20260506070449 32 0 7.0 9.0 0.00 0.00 0.00 100 937.9
20260506062444 32 0 8.0 19.0 0.00 0.00 0.00 100 937.9
20260506062042 32 0 8.0 10.0 0.00 0.00 0.00 100 938.0
20260506061643 32 0 8.0 12.0 0.00 0.00 0.00 100 938.0
20260506061243 32 0 6.0 10.0 0.00 0.00 0.00 100 938.0
20260506060842 32 0 8.0 15.0 0.00 0.00 0.00 100 937.8
20260506060442 32 0 7.0 11.0 0.00 0.00 0.00 100 937.9
20260506051128 32 0 9.0 16.0 0.00 0.00 0.00 100 938.0
20260506050728 32 0 8.0 13.0 0.00 0.00 0.00 100 938.1
20260506050328 32 0 8.0 13.0 0.00 0.00 0.00 100 938.1
20260505171302 32 0 4.0 9.0 0.00 0.00 0.00 100 939.4
20260505170327 32 0 6.0 10.0 0.00 0.00 0.00 100 939.3
20260505165927 32 0 6.0 8.0 0.00 0.00 0.00 100 939.3
20260505165526 32 0 6.0 11.0 0.00 0.00 0.00 100 939.3
20260505165126 32 0 6.0 10.0 0.00 0.00 0.00 100 939.3
20260505164724 32 0 6.0 8.0 0.00 0.00 0.00 100 939.3
20260505164324 32 0 7.0 9.0 0.00 0.00 0.00 100 939.2
20260505163924 32 0 5.0 8.0 0.00 0.00 0.00 100 939.4
20260505163524 32 0 5.0 8.0 0.00 0.00 0.00 100 939.4
20260505163124 32 0 7.0 10.0 0.00 0.00 0.00 100 939.3
20260505162722 32 0 6.0 9.0 0.00 0.00 0.00 100 939.3
20260505162322 32 0 7.0 11.0 0.00 0.00 0.00 100 939.3
20260505161922 32 0 6.0 7.0 0.00 0.00 0.00 100 939.4
20260505161514 32 0 6.0 9.0 0.00 0.00 0.00 100 939.4
20260505161112 32 0 7.0 10.0 0.00 0.00 0.00 100 939.4
20260505160709 32 0 7.0 9.0 0.00 0.00 0.00 100 939.4
20260505160308 32 0 6.0 10.0 0.00 0.00 0.00 100 939.4
20260505153105 32 0 6.0 9.0 0.00 0.00 0.00 100 939.5
20260505152703 32 0 7.0 9.0 0.00 0.00 0.00 100 939.5
20260505152305 32 0 5.0 9.0 0.00 0.00 0.00 100 939.5
20260505151903 32 0 9.0 57.0 0.00 0.00 0.00 100 939.5
20260505151503 32 0 5.0 12.0 0.00 0.00 0.00 100 939.6
20260505151103 32 0 6.0 9.0 0.00 0.00 0.00 100 939.7
20260505150701 32 0 6.0 8.0 0.00 0.00 0.00 100 939.7
20260505150301 32 0 5.0 8.0 0.00 0.00 0.00 100 939.7
20260505140653 32 0 4.0 6.0 0.00 0.00 0.00 100 940.2
20260505140254 32 0 5.0 13.0 0.00 0.00 0.00 100 940.3
20260505130235 32 0 15.0 25.0 0.00 0.00 0.00 100 940.1
20260505125035 32 0 14.0 28.0 0.00 0.00 0.00 100 940.4
20260505124633 32 0 13.0 32.0 0.00 0.00 0.00 100 940.4
20260505124233 32 0 11.0 20.0 0.00 0.00 0.00 100 940.4
20260505123832 32 0 7.0 17.0 0.00 0.00 0.00 100 940.5
20260505123432 32 0 7.0 12.0 0.00 0.00 0.00 100 940.5
20260505123032 32 0 7.0 10.0 0.00 0.00 0.00 100 940.5
20260505122630 32 0 6.0 14.0 0.00 0.00 0.00 100 940.5
20260505122230 32 0 7.0 13.0 0.00 0.00 0.00 100 940.4
20260505121830 32 0 8.0 14.0 0.00 0.00 0.00 100 940.6
20260505121430 32 0 8.0 14.0 0.00 0.00 0.00 100 940.5
20260505121030 32 0 7.0 12.0 0.00 0.00 0.00 100 940.5
20260505120628 32 0 7.0 12.0 0.00 0.00 0.00 100 940.5
20260505120228 32 0 8.0 11.0 0.00 0.00 0.00 100 940.5
20260505115828 32 0 8.0 14.0 0.00 0.00 0.00 100 940.5
20260505115429 32 0 9.0 14.0 0.00 0.00 0.00 100 940.6
20260505115027 32 0 8.0 12.0 0.00 0.00 0.00 100 940.5
20260505114625 32 0 9.0 12.0 0.00 0.00 0.00 100 940.5
20260505114225 32 0 7.0 10.0 0.00 0.00 0.00 100 940.6
20260505113825 32 0 7.0 11.0 0.00 0.00 0.00 100 820.2
20260505113417 32 0 8.0 11.0 0.00 0.00 0.00 100 940.6
20260505113016 32 0 7.0 10.0 0.00 0.00 0.00 100 940.7
20260505112613 32 0 7.0 13.0 0.00 0.00 0.00 100 940.7
20260505112212 32 0 10.0 13.0 0.00 0.00 0.00 100 940.7
20260505111811 32 0 7.0 12.0 0.00 0.00 0.00 100 940.8
20260505111411 32 0 8.0 12.0 0.00 0.00 0.00 100 940.8
20260505111011 32 0 7.0 12.0 0.00 0.00 0.00 100 940.9
20260505110609 32 0 8.0 11.0 0.00 0.00 0.00 100 940.9
20260505110209 32 0 6.0 8.0 0.00 0.00 0.00 100 941.0
20260505102204 32 0 6.0 10.0 0.00 0.00 0.00 100 941.3
20260505101804 32 0 7.0 10.0 0.00 0.00 0.00 100 941.4
20260505101404 32 0 5.0 22.0 0.00 0.00 0.00 100 941.5
20260505101004 32 0 7.0 11.0 0.00 0.00 0.00 100 941.5
20260505100602 32 0 6.0 11.0 0.00 0.00 0.00 100 941.5
20260505100202 32 0 8.0 13.0 0.00 0.00 0.00 100 941.6
20260505095802 32 0 6.0 10.0 0.00 0.00 0.00 100 941.7
20260505095401 32 0 6.0 8.0 0.00 0.00 0.00 100 941.7
20260505095001 32 0 8.0 12.0 0.00 0.00 0.00 100 941.7
20260505094559 32 0 5.0 10.0 0.00 0.00 0.00 100 941.8
20260505094159 32 0 5.0 7.0 0.00 0.00 0.00 100 941.9
20260505093800 32 0 8.0 12.0 0.00 0.00 0.00 100 941.8
20260505093359 32 0 5.0 10.0 0.00 0.00 0.00 100 942.0
20260505092959 32 0 4.0 8.0 0.00 0.00 0.00 100 942.0
20260505092557 32 0 4.0 9.0 0.00 0.00 0.00 100 942.0
20260505092157 32 0 5.0 7.0 0.00 0.00 0.00 100 942.1
20260505091757 32 0 3.0 6.0 0.00 0.00 0.00 100 821.0
20260505091349 32 0 3.0 5.0 0.00 0.00 0.00 100 942.2
20260505090948 32 0 8.0 13.0 0.00 0.00 0.00 100 942.1
20260505090545 32 0 5.0 10.0 0.00 0.00 0.00 100 942.1
20260505090144 32 0 8.0 13.0 0.00 0.00 0.00 100 942.1